When you browse on this site, cookies collect data to enhance your experience and personalize the content and advertising you see.
Visit our Privacy Policy to learn more. By continuing to use the site, you agree to this use of cookies and data.
  • în România
  • Lista ţărilor
  • Pe 7 zile
  • Temperatura apei
  • Meteo pe hartă
  • Widget-uri
  • user-avatar
    Intrare

    Meteo pe oră la Tomaszów Mazowiecki

    Astăzi, 25 August, Duminică

    Timp Temperatura Precipitaţii Vânt Presiune Umiditate
    00:00 +18°C° 0 mm 3 m/s 753 mmHg 77%
    01:00 +17°C° 0 mm 3 m/s 753 mmHg 80%
    02:00 +17°C° 0 mm 3 m/s 753 mmHg 80%
    03:00 +17°C° 0 mm 3 m/s 753 mmHg 80%
    04:00 +16°C° 0 mm 3 m/s 753 mmHg 80%
    05:00 +17°C° 0 mm 4 m/s 753 mmHg 76%
    06:00 +18°C° 0 mm 4 m/s 753 mmHg 71%
    07:00 +19°C° 0 mm 4 m/s 753 mmHg 66%
    08:00 +21°C° 0 mm 5 m/s 753 mmHg 61%
    09:00 +23°C° 0 mm 5 m/s 753 mmHg 56%
    10:00 +26°C° 0 mm 5 m/s 753 mmHg 51%
    11:00 +26°C° 0 mm 5 m/s 753 mmHg 50%
    12:00 +27°C° 0 mm 5 m/s 753 mmHg 49%
    13:00 +28°C° 0 mm 5 m/s 753 mmHg 48%
    14:00 +28°C° 0 mm 5 m/s 752 mmHg 49%
    15:00 +28°C° 0 mm 5 m/s 752 mmHg 50%
    16:00 +28°C° 0 mm 5 m/s 752 mmHg 52%
    17:00 +26°C° 0 mm 4 m/s 752 mmHg 57%
    18:00 +25°C° 0 mm 4 m/s 752 mmHg 62%
    19:00 +22°C° 0 mm 4 m/s 752 mmHg 67%
    20:00 +22°C° 0 mm 4 m/s 752 mmHg 69%
    21:00 +21°C° 0 mm 4 m/s 752 mmHg 72%
    22:00 +20°C° 0 mm 4 m/s 752 mmHg 74%
    23:00 +20°C° 0 mm 4 m/s 752 mmHg 76%

    Mâine, 26 August, Luni

    Timp Temperatura Precipitaţii Vânt Presiune Umiditate
    00:00 +19°C° 0 mm 3 m/s 752 mmHg 77%
    01:00 +19°C° 0 mm 3 m/s 752 mmHg 79%
    02:00 +18°C° 0 mm 3 m/s 752 mmHg 80%
    03:00 +18°C° 0 mm 3 m/s 752 mmHg 81%
    04:00 +17°C° 0 mm 3 m/s 751 mmHg 83%
    05:00 +18°C° 0 mm 3 m/s 751 mmHg 79%
    06:00 +19°C° 0 mm 4 m/s 751 mmHg 76%
    07:00 +20°C° 0 mm 4 m/s 751 mmHg 73%
    08:00 +22°C° 0 mm 4 m/s 751 mmHg 67%
    09:00 +25°C° 0 mm 4 m/s 751 mmHg 62%
    10:00 +27°C° 0 mm 4 m/s 751 mmHg 56%
    11:00 +28°C° 0 mm 4 m/s 751 mmHg 53%
    12:00 +29°C° 0 mm 4 m/s 751 mmHg 50%
    13:00 +30°C° 0 mm 4 m/s 751 mmHg 47%
    14:00 +32°C° 0 mm 4 m/s 751 mmHg 47%
    15:00 +32°C° 0 mm 4 m/s 750 mmHg 48%
    16:00 +32°C° 0 mm 4 m/s 750 mmHg 48%
    17:00 +29°C° 0.1 mm 3 m/s 750 mmHg 56%
    18:00 +27°C° 0.1 mm 3 m/s 750 mmHg 63%
    19:00 +25°C° 0.1 mm 3 m/s 750 mmHg 70%
    20:00 +24°C° 0.1 mm 3 m/s 750 mmHg 74%
    21:00 +24°C° 0.1 mm 3 m/s 750 mmHg 78%
    22:00 +22°C° 0.1 mm 3 m/s 750 mmHg 81%
    23:00 +21°C° 0.2 mm 3 m/s 750 mmHg 83%

    Poimâine, 27 August, Marţi

    Timp Temperatura Precipitaţii Vânt Presiune Umiditate
    00:00 +21°C° 0.2 mm 2 m/s 750 mmHg 84%
    01:00 +21°C° 0.2 mm 2 m/s 750 mmHg 86%
    02:00 +20°C° 0 mm 2 m/s 750 mmHg 87%
    03:00 +20°C° 0 mm 2 m/s 750 mmHg 88%
    04:00 +19°C° 0 mm 2 m/s 750 mmHg 88%
    05:00 +20°C° 0 mm 2 m/s 750 mmHg 84%
    06:00 +21°C° 0 mm 3 m/s 750 mmHg 79%
    07:00 +22°C° 0 mm 3 m/s 750 mmHg 74%
    08:00 +25°C° 0 mm 3 m/s 750 mmHg 67%
    09:00 +27°C° 0 mm 3 m/s 751 mmHg 59%
    10:00 +29°C° 0 mm 3 m/s 751 mmHg 51%
    11:00 +30°C° 0 mm 3 m/s 751 mmHg 48%
    12:00 +31°C° 0 mm 3 m/s 751 mmHg 44%
    13:00 +34°C° 0 mm 3 m/s 751 mmHg 41%
    14:00 +33°C° 0 mm 3 m/s 750 mmHg 41%
    15:00 +33°C° 0 mm 3 m/s 750 mmHg 42%
    16:00 +33°C° 0 mm 4 m/s 750 mmHg 42%
    17:00 +30°C° 0.1 mm 4 m/s 750 mmHg 48%
    18:00 +28°C° 0.1 mm 4 m/s 750 mmHg 55%
    19:00 +26°C° 0.1 mm 3 m/s 750 mmHg 61%
    20:00 +25°C° 0 mm 3 m/s 750 mmHg 64%
    21:00 +25°C° 0 mm 3 m/s 750 mmHg 66%
    22:00 +24°C° 0 mm 3 m/s 750 mmHg 69%
    23:00 +22°C° 0 mm 3 m/s 750 mmHg 71%

    28 August, Miercuri

    Timp Temperatura Precipitaţii Vânt Presiune Umiditate
    00:00 +22°C° 0 mm 3 m/s 750 mmHg 73%
    01:00 +21°C° 0 mm 3 m/s 750 mmHg 75%
    02:00 +21°C° 0 mm 3 m/s 750 mmHg 76%
    03:00 +20°C° 0 mm 3 m/s 750 mmHg 76%
    04:00 +20°C° 0 mm 3 m/s 750 mmHg 76%
    05:00 +21°C° 0 mm 3 m/s 750 mmHg 72%
    06:00 +22°C° 0 mm 4 m/s 750 mmHg 68%
    07:00 +23°C° 0 mm 4 m/s 750 mmHg 64%
    08:00 +26°C° 0 mm 4 m/s 749 mmHg 57%
    09:00 +28°C° 0 mm 4 m/s 749 mmHg 50%
    10:00 +30°C° 0 mm 5 m/s 749 mmHg 44%
    11:00 +32°C° 0 mm 4 m/s 749 mmHg 41%
    12:00 +32°C° 0 mm 4 m/s 749 mmHg 39%
    13:00 +33°C° 0 mm 4 m/s 749 mmHg 37%
    14:00 +33°C° 0 mm 4 m/s 748 mmHg 38%
    15:00 +33°C° 0 mm 4 m/s 748 mmHg 39%
    16:00 +33°C° 0 mm 4 m/s 748 mmHg 40%
    17:00 +30°C° 0 mm 4 m/s 748 mmHg 46%
    18:00 +28°C° 0 mm 4 m/s 748 mmHg 53%
    19:00 +26°C° 0 mm 4 m/s 747 mmHg 59%
    20:00 +25°C° 0 mm 4 m/s 748 mmHg 63%
    21:00 +24°C° 0 mm 3 m/s 748 mmHg 67%
    22:00 +22°C° 0 mm 3 m/s 748 mmHg 71%
    23:00 +22°C° 0 mm 3 m/s 748 mmHg 73%

    29 August, Joi

    Timp Temperatura Precipitaţii Vânt Presiune Umiditate
    00:00 +21°C° 0 mm 3 m/s 748 mmHg 75%
    01:00 +21°C° 0 mm 3 m/s 748 mmHg 77%
    02:00 +20°C° 0.1 mm 3 m/s 748 mmHg 78%
    03:00 +20°C° 0.1 mm 4 m/s 747 mmHg 79%
    04:00 +19°C° 0.1 mm 4 m/s 747 mmHg 80%
    05:00 +20°C° 0 mm 4 m/s 747 mmHg 77%
    06:00 +20°C° 0 mm 4 m/s 747 mmHg 73%
    07:00 +21°C° 0 mm 4 m/s 747 mmHg 70%
    08:00 +23°C° 0.1 mm 4 m/s 747 mmHg 65%
    09:00 +26°C° 0.1 mm 4 m/s 748 mmHg 60%
    10:00 +28°C° 0.1 mm 4 m/s 748 mmHg 55%
    11:00 +29°C° 0.2 mm 4 m/s 748 mmHg 52%
    12:00 +30°C° 0.2 mm 4 m/s 747 mmHg 49%
    13:00 +32°C° 0.2 mm 4 m/s 747 mmHg 46%
    14:00 +32°C° 0 mm 4 m/s 747 mmHg 46%
    15:00 +32°C° 0 mm 4 m/s 747 mmHg 45%
    16:00 +32°C° 0 mm 4 m/s 747 mmHg 45%
    17:00 +29°C° 0.2 mm 4 m/s 747 mmHg 52%
    18:00 +27°C° 0.2 mm 4 m/s 747 mmHg 59%
    19:00 +25°C° 0.2 mm 4 m/s 747 mmHg 66%
    20:00 +23°C° 0.4 mm 4 m/s 748 mmHg 70%
    21:00 +22°C° 0.4 mm 4 m/s 748 mmHg 74%
    22:00 +21°C° 0.4 mm 4 m/s 748 mmHg 78%
    23:00 +21°C° 0.1 mm 3 m/s 748 mmHg 80%

    30 August, Vineri

    Timp Temperatura Precipitaţii Vânt Presiune Umiditate
    00:00 +20°C° 0.1 mm 3 m/s 748 mmHg 82%
    01:00 +19°C° 0.1 mm 3 m/s 748 mmHg 83%
    02:00 +19°C° 0 mm 3 m/s 748 mmHg 83%
    03:00 +18°C° 0 mm 4 m/s 748 mmHg 83%
    04:00 +18°C° 0 mm 4 m/s 748 mmHg 83%
    05:00 +18°C° 0 mm 3 m/s 748 mmHg 79%
    06:00 +19°C° 0 mm 3 m/s 748 mmHg 75%
    07:00 +20°C° 0 mm 3 m/s 748 mmHg 71%
    08:00 +22°C° 0 mm 3 m/s 748 mmHg 64%
    09:00 +25°C° 0 mm 3 m/s 749 mmHg 58%
    10:00 +27°C° 0 mm 3 m/s 749 mmHg 51%
    11:00 +28°C° 0 mm 3 m/s 749 mmHg 48%
    12:00 +29°C° 0 mm 3 m/s 749 mmHg 45%
    13:00 +30°C° 0 mm 2 m/s 748 mmHg 41%
    14:00 +30°C° 0 mm 2 m/s 748 mmHg 41%
    15:00 +30°C° 0 mm 2 m/s 748 mmHg 42%
    16:00 +30°C° 0 mm 2 m/s 748 mmHg 42%
    17:00 +28°C° 0.2 mm 2 m/s 748 mmHg 50%
    18:00 +26°C° 0.2 mm 3 m/s 748 mmHg 58%
    19:00 +24°C° 0.2 mm 3 m/s 748 mmHg 66%
    20:00 +22°C° 1.1 mm 3 m/s 748 mmHg 71%
    21:00 +21°C° 1.1 mm 3 m/s 748 mmHg 76%
    22:00 +21°C° 1.1 mm 2 m/s 749 mmHg 81%
    23:00 +20°C° 0.2 mm 2 m/s 749 mmHg 81%
    Arată mai mult